www.pogodaiklimat.ru

Погода и климат >> Архив погоды >> Франция >> Орлеан


АРХИВ ПОГОДЫ в Орлеане

Время (UTC), дата Ветер
(напр.,м/с)
 
Видим.   Явления Облачность Т
(С)
Тd
(С)
f
(%)
Тe
(С)
Тes
(С)
Комфортность P
(гПа)
Po
(гПа)
Тmin
(С)
Tmax
(С)
R
(мм)
R24
(мм)
S
(см)
13 18.06 В 3 45 км 9/9
[]
+27.7 +16.0 49 +31 +32 душно 1009.7 995.6
14 18.06 ЮВ 3 60 км 9/9
[]
+27.6 +13.9 43 +30 +31 жарко 1009.4 995.3
15 18.06 ЮВ 3
{9}
60 км н/о +28.3 +13.4 40 +30 +30 жарко 1009.0 994.9 0
16 18.06 ЮВ 3 50 км н/о +28.7 +13.8 40 +31 +31 жарко 1008.7 994.6
17 18.06 ЮВ 3 50 км н/о +28.7 +14.5 42 +31 +31 жарко 1008.2 994.2
18 18.06 ЮВ 2
{7}
60 км н/о +28.0 +16.0 48 +31 +31 душно 1007.9 993.8 +16.1 +29.1 0
19 18.06 ЮВ 1 60 км н/о +26.2 +16.7 56 +30 +30 душно 1007.7 993.6
20 18.06 ЮВ 1 60 км н/о +22.9 +16.4 67 +28 +28 душно 1007.7 993.4
21 18.06 В 1
{3}
60 км н/о +20.5 +16.1 76 +25 +25 комфорт 1007.9 993.5 0
22 18.06 ЮВ 2 60 км 8/8
[]
+20.2 +16.0 77 +24 +24 комфорт 1007.5 993.1
23 18.06 ЮВ 2 60 км н/о +21.1 +15.0 68 +24 +24 комфорт 1006.8 992.4
00 19.06 Ю 2
{5}
60 км н/о +20.4 +15.2 72 +24 +24 комфорт 1007.0 992.6 0
01 19.06 Ю 2 60 км н/о +19.6 +15.3 76 +22 +22 комфорт 1007.4 992.9
02 19.06 ЮЗ 3 60 км 10/10 1500 м
[]
+21.8 +15.9 69 +25 +25 комфорт 1007.7 993.3
03 19.06 ЮЗ 5-16
{16}
50 км 10/0
[]
+20.7 +15.0 70 +24 +24 комфорт 1008.1 993.7 0
04 19.06 ЮЗ 4 60 км 10/10 1500 м
[]
+20.5 +12.5 60 +23 +23 комфорт 1007.4 993.0
05 19.06 З 1 60 км 10/10 1500 м
[]
+17.6 +14.5 82 +19 +19 тепло 1007.6 993.0 0.0
06 19.06 Ю 2
{5}
45 км н/о +18.6 +14.7 78 +20 +20 тепло 1008.1 993.6 +17.1 +27.9 0.0 0
07 19.06 ЮЗ 3 60 км н/о +20.8 +14.7 68 +24 +24 комфорт 1008.2 993.8
08 19.06 ЮЗ 4 13 км 10/10
[]
+23.1 +13.8 56 +27 +27 душно 1008.0 993.7
09 19.06 ЮЗ 4
{10}
40 км 10/0
[]
+22.4 +15.3 64 +26 +26 жарко 1008.7 994.4 0
10 19.06 З 5 19 км н/о +23.2 +15.3 61 +27 +27 душно 1009.3 995.0
11 19.06 ЮЗ 4 30 км 8/1 1110 м
[]
+23.6 +14.3 56 +26 +33 жарко 1009.7 995.4
12 19.06 ЮЗ 4
{11}
35 км 10/10 1000 м
[]
+24.3 +14.4 54 +27 +31 жарко 1009.9 995.6 0
13 19.06 ЮЗ 4 45 км 10/1 600 м
[]
+23.5 +15.0 59 +26 +31 жарко 1010.2 995.9
14 19.06 ЮЗ 5 35 км н/о +24.2 +14.3 54 +27 +27 жарко 1009.9 995.6
15 19.06 ЮЗ 4
{12}
35 км 9/9 1000 м
[]
+22.6 +15.2 63 +26 +28 жарко 1009.8 995.4 0
16 19.06 З 4 40 км н/о +23.3 +14.6 58 +27 +27 душно 1009.7 995.4
17 19.06 ЮЗ 4 50 км 9/9 1170 м
[]
+22.5 +14.6 61 +26 +26 жарко 1009.9 995.5
18 19.06 З 4
{12}
35 км н/о +21.7 +14.8 65 +25 +25 комфорт 1010.4 996.0 +18.6 +24.7 0
19 19.06 СЗ 2 50 км 10/6 1020 м
[]
+18.3 +15.2 82 +19 +20 тепло 1011.2 996.6
20 19.06 З 2 60 км 9/9 1500 м
[]
+17.8 +15.2 85 +19 +19 тепло 1011.6 997.0
21 19.06 З 2
{4}
55 км 9/9 1000 м
[]
+16.9 +15.2 90 +17 +17 по сезону 1012.1 997.4 0
22 19.06 ЮЗ 1 60 км 10/9 1110 м
[]
+17.5 +15.5 88 +19 +19 тепло 1012.2 997.6
23 19.06 ЮЗ 1 60 км 10/1 900 м
[]
+17.6 +15.2 86 +19 +19 тепло 1012.4 997.8
00 20.06 ЮЗ 2
{5}
60 км 10/10 600 м
[]
+17.2 +14.1 82 +18 +18 тепло 1012.6 997.9 0
01 20.06 ЮЗ 2 60 км 10/6 750 м
[]
+16.7 +14.2 85 +17 +17 тепло 1012.5 997.8
02 20.06 ЮЗ 1 50 км 10/4 720 м
[]
+16.2 +14.7 91 +17 +17 тепло 1012.4 997.7 0.0
03 20.06 ЮЗ 2
{5}
50 км 10/10 300 м
[]
+16.4 +14.4 88 +16 +16 тепло 1012.5 997.8 0.0 0
04 20.06 ЮЗ 2 45 км 10/10 360 м
[]
+16.3 +14.5 89 +16 +16 тепло 1012.7 998.0
05 20.06 СЗ 3 11 км слаб. морось 10/10 180 м
[]
+13.8 +13.2 96 +13 +13 тепло 1013.7 998.8 0.0
06 20.06 СЗ 2
{7}
19 км 10/10 100 м
[]
+14.1 +13.5 96 +13 +13 по сезону 1014.1 999.3 +13.8 +21.6 0.2 0
07 20.06 З 2 55 км 10/10 300 м
[]
+14.7 +13.2 91 +14 +14 по сезону 1014.7 999.9
08 20.06 СЗ 3 19 км 10/9 300 м
[]
+15.1 +13.1 88 +15 +15 по сезону 1015.1 1000.3 0.2
09 20.06 СЗ 3
{7}
18 км 10/10 300 м
[]
+16.0 +12.7 81 +16 +16 по сезону 1015.5 1000.7 0.2 0
10 20.06 СЗ 2 19 км 10/10 570 м
[]
+17.3 +13.4 78 +18 +18 прохладно 1015.7 1001.0
11 20.06 З 2 45 км 10/6 750 м
[]
+18.3 +11.6 65 +19 +23 прохладно 1016.3 1001.6
12 20.06 З 2
{7}
55 км 8/8 1000 м
[]
+18.9 +11.7 63 +20 +29 по сезону 1015.9 1001.3 0
13 20.06 СЗ 2 45 км 10/6 1320 м
[]
+20.4 +11.9 58 +23 +26 комфорт 1015.7 1001.1
14 20.06 СЗ 3 60 км 10/1 1410 м
[]
+20.9 +10.7 52 +23 +29 комфорт 1015.6 1001.1
15 20.06 З 3
{7}
50 км 10/10 1000 м
[]
+20.1 +10.8 55 +22 +25 комфорт 1015.7 1001.1 0
16 20.06 З 2 55 км 9/3 1380 м
[]
+19.9 +10.9 56 +22 +25 комфорт 1015.8 1001.2
17 20.06 З 2 60 км н/о +20.1 +9.9 52 +22 +22 комфорт 1015.8 1001.2
18 20.06 СЗ 2
{7}
60 км н/о +19.2 +9.9 55 +21 +21 комфорт 1016.0 1001.4 +14.1 +21.1 0
19 20.06 СЗ 2 55 км 9/9 2000 м
[]
+19.5 +8.5 49 +21 +21 комфорт 1016.3 1001.7
20 20.06 СЗ 1 60 км н/о +16.2 +9.4 64 +17 +17 по сезону 1016.8 1002.0
21 20.06 С 1
{3}
60 км 10/0
[]
+14.6 +9.8 73 +16 +16 по сезону 1017.3 1002.4 0
22 20.06 С 1 60 км 10/10
[]
+13.1 +9.7 80 +13 +13 тепло 1018.0 1003.0
23 20.06 С 2 60 км н/о +12.3 +10.0 86 +12 +12 по сезону 1018.5 1003.5
00 21.06 С 2
{4}
60 км 10/0
[]
+11.6 +9.8 89 +11 +11 по сезону 1018.7 1003.6 0
01 21.06 С 2 50 км н/о +11.2 +9.5 89 +10 +10 по сезону 1018.6 1003.5
02 21.06 С 2 55 км н/о +10.2 +8.8 91 +9 +9 по сезону 1018.8 1003.7
03 21.06 С 2
{5}
45 км н/о +9.5 +8.3 92 +8 +8 прохладно 1019.1 1003.9 0
04 21.06 С 1 45 км н/о +9.1 +7.9 92 +8 +8 по сезону 1019.3 1004.1
05 21.06 С 1 40 км н/о +10.5 +8.8 89 +10 +10 по сезону 1019.3 1004.2
06 21.06 С 2
{6}
35 км н/о +13.2 +10.2 82 +12 +12 по сезону 1019.7 1004.7 +9.0 +20.0 0
07 21.06 СВ 3 40 км н/о +15.6 +11.2 75 +15 +15 по сезону 1020.0 1005.1
08 21.06 СВ 3 35 км н/о +17.2 +11.5 69 +17 +17 по сезону 1020.0 1005.2
09 21.06 СВ 2
{7}
35 км н/о +18.3 +10.9 62 +19 +19 тепло 1019.9 1005.2 0
10 21.06 С 2 27 км н/о +19.4 +10.7 57 +21 +21 комфорт 1020.0 1005.3
11 21.06 СВ 2 40 км н/о +20.2 +8.5 47 +22 +22 комфорт 1019.8 1005.2
12 21.06 С 2
{7}
45 км н/о +19.6 +8.6 49 +21 +21 комфорт 1019.6 1004.9 0
13 21.06 СВ 2 19 км 8/8 1500 м
[]
+20.7 +9.6 49 +23 +27 комфорт 1019.5 1004.9
14 21.06 С 1 60 км н/о +22.3 +10.8 48 +24 +24 комфорт 1019.1 1004.6
15 21.06 СВ 2
{8}
60 км 8/8 1500 м
[]
+21.5 +8.0 42 +23 +25 комфорт 1019.1 1004.5 0
16 21.06 С 2 60 км н/о +20.7 +7.7 43 +23 +23 комфорт 1019.0 1004.4
17 21.06 СВ 2 55 км 10/10
[]
+20.3 +8.6 47 +22 +22 комфорт 1019.1 1004.5
18 21.06 С 2
{6}
45 км 10/0
[]
+21.1 +9.0 46 +22 +22 комфорт 1019.0 1004.4 +13.2 +22.3 0
19 21.06 С 2 50 км 10/10
[]
+19.5 +9.4 52 +21 +21 комфорт 1019.4 1004.7
20 21.06 С 2 60 км 10/10
[]
+18.3 +9.9 58 +19 +19 тепло 1019.8 1005.1
21 21.06 С 2
{4}
60 км 10/0
[]
+16.9 +10.7 67 +17 +17 по сезону 1020.2 1005.4 0
22 21.06 С 2 60 км 10/10
[]
+16.0 +10.5 70 +16 +16 тепло 1020.5 1005.6
23 21.06 С 2 60 км 10/10
[]
+15.2 +10.8 75 +15 +15 тепло 1020.8 1005.9
00 22.06 СВ 2
{5}
60 км 10/0
[]
+15.1 +10.7 75 +15 +15 тепло 1020.7 1005.8 0
01 22.06 СВ 2 60 км 10/10
[]
+14.8 +10.2 74 +15 +15 тепло 1020.5 1005.6
02 22.06 СВ 2 60 км 10/10
[]
+13.6 +10.4 81 +13 +13 по сезону 1020.2 1005.2
03 22.06 СВ 2
{4}
60 км 10/0
[]
+12.9 +10.3 84 +12 +12 по сезону 1020.1 1005.1 0
04 22.06 С 1 60 км 10/10
[]
+12.8 +9.6 81 +13 +13 тепло 1019.9 1004.9
05 22.06 С 2 45 км 10/10
[]
+12.7 +10.2 85 +12 +12 по сезону 1020.0 1005.0
06 22.06 С 2
{4}
40 км н/о +12.8 +10.5 86 +12 +12 по сезону 1019.9 1004.9 +12.2 +21.2 0
07 22.06 С 2 35 км н/о +17.0 +10.8 67 +17 +17 по сезону 1019.7 1004.9
08 22.06 С 3 17 км н/о +18.6 +10.7 60 +19 +19 тепло 1019.3 1004.6
09 22.06 СВ 3
{9}
15 км н/о +20.4 +11.3 56 +23 +23 комфорт 1018.8 1004.2 0
10 22.06 СВ 3 25 км н/о +21.3 +10.5 50 +23 +23 комфорт 1018.8 1004.2
11 22.06 С 2 19 км н/о +21.2 +10.4 50 +23 +23 комфорт 1018.6 1004.0
12 22.06 СВ 3
{9}
60 км н/о +22.8 +9.6 43 +24 +24 комфорт 1018.1 1003.6 0
13 22.06 В 3 55 км н/о +23.5 +9.8 42 +25 +25 комфорт 1017.4 1003.0
14 22.06 СВ 3 55 км н/о +23.8 +12.1 48 +26 +26 жарко 1017.0 1002.6
15 22.06 СВ 2
{9}
19 км н/о +23.5 +10.9 45 +25 +25 комфорт 1016.7 1002.3 0
16 22.06 СВ 2 60 км н/о +24.6 +12.5 47 +26 +26 жарко 1016.1 1001.7
17 22.06 В 3 28 км н/о +23.3 +12.9 52 +26 +26 жарко 1015.9 1001.5
18 22.06 СВ 3
{8}
27 км н/о +23.2 +13.7 55 +27 +27 душно 1015.8 1001.4 +12.8 +24.7 0
19 22.06 СВ 2 35 км н/о +21.0 +14.2 65 +25 +25 комфорт 1015.8 1001.3
20 22.06 СВ 1 55 км н/о +18.8 +14.7 77 +21 +21 комфорт 1016.5 1001.9
21 22.06 СВ 1
{5}
50 км н/о +16.5 +14.5 88 +17 +17 по сезону 1016.8 1002.0 0
22 22.06 СВ 1 35 км н/о +16.3 +14.3 88 +18 +18 тепло 1017.0 1002.2
23 22.06 СВ 1 19 км н/о +15.7 +14.4 92 +16 +16 тепло 1016.4 1001.6
00 23.06 СВ 2
{3}
19 км н/о +15.0 +13.4 90 +15 +15 тепло 1016.2 1001.4 0
01 23.06 СВ 2 14 км н/о +14.0 +12.9 93 +13 +13 тепло 1015.9 1001.0
02 23.06 СВ 1 16 км н/о +13.8 +12.9 94 +14 +14 тепло 1015.6 1000.7
03 23.06 СВ 2
{4}
15 км н/о +13.2 +12.3 94 +13 +13 по сезону 1015.4 1000.5 0
04 23.06 В 2 11 км н/о +12.8 +12.0 95 +12 +12 тепло 1014.9 1000.0
05 23.06 В 2 13 км н/о +14.8 +13.7 93 +15 +15 тепло 1014.6 999.8
06 23.06 В 2
{5}
8000 м н/о +17.5 +14.9 85 +18 +18 тепло 1014.9 1000.2 +12.8 +23.3 0
07 23.06 В 2 7000 м н/о +19.7 +15.6 77 +22 +22 комфорт 1014.5 999.9
08 23.06 ЮВ 2 5000 м н/о +21.5 +15.1 67 +25 +25 комфорт 1014.5 1000.0
09 23.06 ЮВ 2
{8}
9000 м 8/0
[]
+23.2 +15.3 61 +27 +30 душно 1014.1 999.7 0
10 23.06 В 3 13 км 10/10
[]
+23.4 +15.4 61 +28 +28 душно 1013.7 999.3
11 23.06 ЮВ 2 15 км 10/10
[]
+25.7 +16.8 58 +29 +29 душно 1013.4 999.2
12 23.06 ЮВ 3
{9}
14 км н/о +26.9 +16.2 52 +30 +30 душно 1013.1 998.9 0
13 23.06 ЮВ 3 15 км н/о +27.1 +15.5 49 +30 +30 душно 1012.7 998.5
14 23.06 ЮВ 2 19 км н/о +27.2 +15.2 48 +30 +30 душно 1012.9 998.7
15 23.06 ЮВ 2
{8}
24 км н/о +28.6 +14.8 43 +31 +31 жарко 1012.4 998.3 0
16 23.06 ЮВ 2 24 км н/о +28.5 +15.1 44 +31 +31 душно 1012.1 998.0
17 23.06 Ю 3 29 км 8/8
[]
+28.6 +14.8 43 +31 +32 жарко 1012.3 998.2
18 23.06 ЮВ 2
{7}
40 км 10/0
[]
+27.4 +16.1 50 +31 +31 душно 1012.3 998.1 +17.5 +29.0 0
19 23.06 ЮВ 2 60 км 10/10
[]
+25.4 +16.0 56 +29 +29 душно 1012.9 998.6
20 23.06 ЮВ 1 60 км 10/10
[]
+23.7 +16.2 63 +27 +27 жарко 1013.2 998.9
21 23.06 ЮВ 1
{4}
60 км 8/0
[]
+22.1 +15.9 68 +26 +26 душно 1013.9 999.5 0
22 23.06 ЮВ 2 60 км н/о +20.6 +15.6 73 +24 +24 комфорт 1014.1 999.6
23 23.06 ЮВ 2 60 км н/о +20.0 +15.6 76 +23 +23 комфорт 1014.1 999.6
00 24.06 ЮВ 2
{6}
60 км н/о +19.8 +15.6 77 +23 +23 комфорт 1014.3 999.7 0
01 24.06 ЮВ 2 60 км 9/9
[]
+20.6 +15.6 73 +24 +24 комфорт 1014.0 999.5
02 24.06 Ю 2 60 км 9/9
[]
+20.9 +15.9 73 +25 +25 комфорт 1013.9 999.4
03 24.06 Ю 1
{5}
60 км 10/0
[]
+20.0 +15.6 76 +24 +24 комфорт 1014.2 999.7 0
04 24.06 Ю 1 55 км н/о +17.4 +15.2 87 +19 +19 тепло 1014.4 999.7
05 24.06 штиль 0 50 км 10/10
[]
+18.8 +16.6 87 +20 +20 тепло 1014.7 1000.1
06 24.06 ЮВ 1
{3}
45 км 10/0
[]
+20.6 +17.6 83 +26 +26 душно 1014.5 1000.0 +17.2 +27.6 0
07 24.06 ЮВ 1 55 км 9/9
[]
+23.3 +17.1 68 +28 +29 душно 1014.9 1000.5
08 24.06 СВ 1 60 км 10/10
[]
+26.0 +17.4 59 +30 +30 душно 1014.7 1000.5
09 24.06 С 1
{3}
16 км 9/0
[]
+27.5 +17.1 53 +31 +33 душно 1015.2 1001.0 1
10 24.06 С 2 16 км н/о +27.7 +18.4 57 +33 +33 очень
душно
1015.4 1001.2
11 24.06 С 3 35 км н/о +28.1 +19.3 59 +34 +34 очень
душно
1015.1 1001.0
12 24.06 С 3
{10}
19 км н/о +28.0 +19.2 59 +34 +34 очень
душно
1015.0 1000.9 0
13 24.06 С 4 19 км н/о +27.5 +19.0 60 +33 +33 очень
душно
1014.2 1000.0
14 24.06 С 4 16 км н/о +28.9 +19.8 58 +35 +35 очень
душно
1013.5 999.4
15 24.06 СВ 4
{12}
16 км н/о +29.8 +19.8 55 +36 +36 очень
душно
1013.4 999.4 0
16 24.06 СВ 4 14 км н/о +30.4 +19.1 51 +36 +36 очень
душно
1013.1 999.1
17 24.06 В 3 35 км н/о +29.4 +17.6 49 +34 +34 очень
душно
1013.0 998.9
18 24.06 СВ 2
{9}
50 км 10/0
[]
+27.7 +18.1 56 +32 +32 очень
душно
1013.0 998.9 +20.8 +30.6 0
19 24.06 СВ 2 60 км н/о +25.5 +18.2 64 +30 +30 душно 1013.4 999.2
20 24.06 СВ 2 60 км 10/10
[]
+24.1 +19.0 73 +29 +29 душно 1013.0 998.7
21 24.06 В 2
{6}
60 км 9/0
[]
+22.8 +19.0 79 +29 +29 очень
душно
1013.0 998.6 0
22 24.06 СВ 1 55 км 10/10
[]
+22.9 +19.1 79 +29 +29 очень
душно
1013.1 998.7
23 24.06 В 2 50 км 10/10
[]
+22.6 +19.2 81 +29 +29 очень
душно
1012.4 998.0
00 25.06 ЮВ 2
{4}
50 км 8/0
[]
+22.2 +18.8 81 +28 +28 душно 1012.9 998.5 0
01 25.06 Ю 2 50 км 8/8
[]
+23.4 +18.1 72 +29 +29 душно 1012.7 998.4
02 25.06 Ю 1 45 км 9/9
[]
+22.6 +17.9 75 +28 +28 душно 1012.9 998.5
03 25.06 СЗ 2
{4}
18 км н/о +18.8 +17.6 93 +21 +21 комфорт 1013.5 998.9 0
05 25.06 С 1 13 км 8/8
[]
+17.4 +16.8 96 +19 +19 тепло 1014.6 999.9
06 25.06 СЗ 1
{4}
18 км 9/0
[]
+18.4 +16.6 89 +21 +21 комфорт 1015.3 1000.7 +17.0 +27.7 1
07 25.06 З 1 19 км н/о +20.4 +17.6 84 +25 +25 комфорт 1015.7 1001.2
08 25.06 ЮЗ 2 19 км н/о +23.3 +19.0 77 +30 +30 очень
душно
1015.8 1001.4
09 25.06 ЮЗ 2
{6}
19 км н/о +25.3 +19.4 70 +31 +31 очень
душно
1016.0 1001.7 1
10 25.06 ЮЗ 2 20 км н/о +27.4 +20.2 65 +34 +34 очень
душно
1016.0 1001.8
11 25.06 Ю 2 22 км н/о +29.2 +19.8 57 +35 +35 очень
душно
1016.2 1002.1

 

Местоположение метеостанции Орлеан (Франция): широта 47.98 долгота 1.78 высота над уровнем моря 125 м.

В архиве по умолчанию представлена погода в Орлеане за последнюю неделю. Архивные данные за месяц целиком и за предыдущие месяцы, начиная с января 2011 года, Вы можете получить, выбрав интересующий диапазон дат из раскрывающегося списка и нажав кнопку "Ввод!".


*Определитесь, кто Вы:
робот инопланетянин человек

Внимание! Время в таблицах - всемирное. Для получения местного времени необходимо прибавить поправку, которая равна 1 ч.

Смотрите также архив погоды в соседних городах и на ближайших метеорологических станциях:

Погода в Шатодёне (Франция) (31 км)
Погода в Блуа (Франция) (53 км)
Погода в Шартре (Франция) (58 км)
Погода в Роморантен-Лантене (Франция) (74 км)
Погода в Трапе (Франция) (89 км)
Погода в Велизи-Вилакубле (Франция) (93 км)
Погода в Париж Орли аэропорту (Франция) (93 км)
Погода в Мелене (Франция) (97 км)
Погода в Туре (Франция) (98 км)
Погода в Тусю-ле-Нобле (Франция) (101 км)

Пояснения к столбцам:

Ветер - указаны скорость ветра в м/с - средняя за 10 мин, порывы в срок и между сроками (в фигурных скобках) и направление, откуда дует ветер: С - северный, СВ - северо-восточный, В - восточный, ЮВ - юго-восточный, Ю - южный, ЮЗ - юго-западный, З - западный, СЗ - северо-западный.
Видимость - горизонтальная дальность видимости в метрах или километрах. При видимости от 1 до 10 км при отсутствии осадков обычно наблюдается дымка, при ухудшении видимости до 1 км и менее - туман. В сухую погоду видимость может ухудшаться дымом, пылью или мглою.
Явления - указаны атмосферные явления, наблюдавшиеся в срок или в последний час перед сроком; фигурными скобками обозначены явления, наблюдавшиеся между сроками (за 1-3 часа до срока); квадратными скобками обозначены град или гололедные отложения с указанием их диаметра в мм.
Облачность - указаны через наклонную черту общая и нижняя облачность в баллах и высота нижней границы облаков в метрах; квадратными скобками обозначены формы облаков: Ci - перистые, Cs - перисто-слоистые, Cc - перисто-кучевые, Ac - высококучевые, As - высокослоистые, Sc - слоисто-кучевые, Ns - слоисто-дождевые, Cu - кучевые, Cb - кучево-дождевые. Подробнее классификацию облаков см. в Атласе облаков (PDF).
T - Температура воздуха - температура, измеренная на высоте 2 м над землей.
Td - Температура точки росы - температура, при понижении до которой содержащийся в воздухе водяной пар достигнет насыщения.
f - Относительная влажность воздуха - влажноcть воздуха, измеренная на высоте 2 м над землей.
Te - Эффективная температура - температура, которую ощущает одетый по сезону человек в тени. Характеристика душности погоды. При расчете учитывается влияние влажности воздуха и скорости ветра на теплоощущения человека.
Tes - Эффективная температура на солнце - температура, которую ощущает человек, с поправкой на солнечный нагрев. Характеристика знойности погоды. Зависит от высоты солнца над горизонтом, облачности и скорости ветра. Ночью, в пасмурную погоду, а также при ветре 12 м/с и более поправка равна нулю.
P - Атмосферное давление - приведенное к уровню моря атмосферное давление.
Po - Атмосферное давление - измеренное на уровне метеостанции атмосферное давление.
Tmin - Минимальная температура - минимум температуры воздуха на высоте 2 м над землей.
Tmax - Максимальная температура - максимум температуры воздуха на высоте 2 м над землей.
R - Количество осадков - Количество выпавших осадков за период времени, мм. При наведении курсора мыши на число - период времени, за который выпало указанное количество осадков.
R24 - Количество осадков - Количество выпавших осадков за 24 часа, мм.
S - Снежный покров - Высота снежного покрова, см. При наведении курсора мыши на число - состояние снежного покрова и степень покрытия местности в баллах.